ARABSAT-7B (BADR-8)

Last updated on Tue Jun 17 2025 00:02:49 GMT+0000 (Coordinated Universal Time)

1 56757U 23075A 25167.29581267 .00000156 00000+0 00000+0 0 9998 2 56757 0.0753 28.6245 0004504 358.1547 10.5298 1.00270644 7455
UTC large
Height (km)
Speed (km/s)
/
Latitude / Longitude
Inclination (degrees)
Orbital Period (minutes)
Azimuth
Elevation
Range (km)
Doppler Factor

Next 0 passes for location: London (51.5072 / 0.1276)

Sorry there are no passes over London.